Location: Ajisawe
(8.4333°N, 4.3833°E)
Time: 13:43:49
(UTC+00:00)

Courier 1B Rocket - Pass Details

Date: 26 April 2021
Orbit: 920 x 1202 km, 28.2° (Epoch: 07 May)

Event Time Altitude Azimuth Distance (km) Brightness Sun altitude
Rises 12:42:18 0° 228° (SW) 3,680 8.1 73.9°
Reaches altitude 10° 12:45:07 10° 223° (SW) 2,695 7.6 73.2°
Maximum altitude 12:51:17 47° 150° (SSE) 1,209 6.1 71.8°
Drops below altitude 10° 12:57:15 10° 77° (ENE) 2,603 7.2 70.4°
Sets 12:59:55 0° 72° (ENE) 3,543 7.8 69.8°
